Fitchburg, MA

2:22 PM EDT on April 28, 2017 (GMT -0400)
Fitchburg Municipal

Weather History for KFIT - October, 2011

Change the Weather History Date:

Saturday, October 8, 2011

  Actual Average (KORH) Record (KORH)
Temperature  
Mean Temperature 64 °F -  
Max Temperature 82 °F 61 °F 82 °F (1916)
Min Temperature 46 °F 43 °F 26 °F (1935)
Degree Days  
Heating Degree Days 1    
Growing Degree Days 14 (Base 50)    
Moisture  
Dew Point 47 °F    
Average Humidity 58    
Maximum Humidity 89    
Minimum Humidity 29    
Precipitation  
Precipitation 0.00 in - - ()
Sea Level Pressure  
Sea Level Pressure 30.40 in    
Wind  
Wind Speed 5 mph (NW)    
Max Wind Speed 12 mph    
Max Gust Speed 16 mph    
Visibility 10 miles    
Events      
Averages and records for this station are not official NWS values.
T = Trace of Precipitation, MM = Missing Value Source: NWS Daily Summary

Daily Weather History Graph

Daily Weather History Graph

Search for Another Location

Airport or City:

Trip Planner

Search our weather history database for the weather conditions in past years. The results will help you decide how hot, cold, wet, or windy it might be!

Date:

Astronomy

Oct. 08, 2011 Rise Set
Actual Time 6:51 AM EDT 6:16 PM EDT
Civil Twilight 6:23 AM EDT 6:45 PM EDT
Nautical Twilight 5:50 AM EDT 7:17 PM EDT
Astronomical Twilight 5:18 AM EDT 7:50 PM EDT
Moon 4:28 PM EDT (10/8) 3:32 AM EDT (10/8)
Length of Visible Light 12h 21m
Length of Day
11h 25m
Waxing Gibbous, 90% of the Moon is Illuminated
Oct 8
Waxing Gibbous
Oct 11
Full
Oct 19
Last Quarter
Oct 26
New
Nov 2
First Quarter

Hourly Weather History & Observations

Time (EDT) Temp. Dew Point Humidity Pressure Visibility Wind Dir Wind Speed Gust Speed Precip Events Conditions
12:52 AM 46.0 °F 43.0 °F 89% 30.41 in 10.0 mi Calm Calm - N/A   Clear
1:52 AM 55.0 °F 39.9 °F 57% 30.40 in 10.0 mi NW 10.4 mph 16.1 mph N/A   Clear
2:52 AM 54.0 °F 39.9 °F 59% 30.40 in 10.0 mi NNW 9.2 mph - N/A   Clear
3:52 AM 54.0 °F 41.0 °F 62% 30.40 in 10.0 mi WNW 11.5 mph - N/A   Clear
4:52 AM 52.0 °F 41.0 °F 66% 30.40 in 10.0 mi NW 5.8 mph - N/A   Clear
5:52 AM 52.0 °F 42.1 °F 69% 30.41 in 10.0 mi NNW 5.8 mph - N/A   Clear
6:52 AM 52.0 °F 42.1 °F 69% 30.43 in 10.0 mi North 4.6 mph - N/A   Clear
7:52 AM 55.0 °F 43.0 °F 64% 30.43 in 10.0 mi Calm Calm - N/A   Clear
8:52 AM 61.0 °F 45.0 °F 56% 30.44 in 10.0 mi NW 10.4 mph - N/A   Clear
9:52 AM 66.9 °F 46.9 °F 49% 30.44 in 10.0 mi NW 9.2 mph - N/A   Clear
10:52 AM 72.0 °F 48.0 °F 43% 30.45 in 10.0 mi NW 5.8 mph - N/A   Clear
11:52 AM 75.9 °F 48.9 °F 38% 30.43 in 10.0 mi Calm Calm - N/A   Clear
12:52 PM 78.1 °F 48.0 °F 35% 30.41 in 10.0 mi West 6.9 mph - N/A   Clear
2:52 PM 82.0 °F 46.9 °F 29% 30.37 in 10.0 mi NW 6.9 mph - N/A   Clear
3:52 PM 82.0 °F 46.9 °F 29% 30.35 in 10.0 mi WNW 5.8 mph - N/A   Clear
4:52 PM 79.0 °F 52.0 °F 39% 30.35 in 10.0 mi WSW 3.5 mph - N/A   Clear
5:52 PM 71.1 °F 55.9 °F 59% 30.36 in 10.0 mi Calm Calm - N/A   Clear
6:52 PM 64.0 °F 55.0 °F 73% 30.38 in 10.0 mi Calm Calm - N/A   Clear
7:52 PM 63.0 °F 55.0 °F 75% 30.38 in 10.0 mi NNW 4.6 mph - N/A   Clear
9:52 PM 57.9 °F 52.0 °F 81% 30.37 in 10.0 mi Calm Calm - N/A   Clear
10:52 PM 57.0 °F 52.0 °F 83% 30.36 in 10.0 mi Calm Calm - N/A   Clear
11:52 PM 64.9 °F 50.0 °F 58% 30.35 in 10.0 mi Variable 4.6 mph - N/A   Clear